Flag for Indonesia Weather past 2 weeks in Makassar, South Sulawesi, Indonesia

Now
70 °F

Clear.


Feels Like: 70 °F
Forecast: 76 / 89 °F
Wind: 3 mph from East

Location: Ujung Pandang / Hasanuddin

Current Time: Jul 29, 2014 at 3:01:45 AM

Latest Report: Jul 29, 2014 at 2:00 AM


Visibility: 5 mi

Pressure: 29.86 "Hg

Humidity: 88%

Dew point: 66 °F

Location of MakassarLocation

Historic Weather in Makassar — Graph

°F

Makassar temperature yesterday

Maximum temperature yesterday: 93 °F (at 1:00 PM)
Minimum temperature yesterday: 70 °F (at 3:30 AM)
Average temperature yesterday: 80 °F

Past Weeks' High & Low Weather Summary

 TemperatureHumidityPressure
High93 °F (Jul 22, 1:30 PM)100% (Jul 17, 12:00 AM)29.95 "Hg (Jul 17, 12:00 AM)
Low68 °F (Jul 24, 2:30 AM)39% (Jul 28, 1:00 PM)29.74 "Hg (Jul 18, 2:30 PM)
Average80 °F78%29.86 "Hg
* Reported Jul 16 8:00 AM — Jul 29 2:00 AM, Makassar, Weather by CustomWeather, © 2014

Note: Actual official high and low records may vary slightly from our data, if they occured in-between our weather recording intervals... More about our weather records

Advertising

Makassar weather history for previous 24 hours

 ConditionsComfort  
Time TempWeatherWind HumidityBarometerVisibility
2:00 AM
Jul 29
70 °FClear.3 mph88%29.86 "Hg5 mi
1:30 AM72 °FPassing clouds.3 mph83%29.86 "Hg5 mi
1:00 AM73 °FPassing clouds.3 mph83%29.86 "Hg5 mi
12:30 AM75 °FPassing clouds.5 mph69%29.86 "Hg5 mi
12:00 AM73 °FPassing clouds.1 mph74%29.86 "Hg5 mi
11:30 PM
Jul 28
73 °FPassing clouds.1 mph78%29.86 "Hg5 mi
11:00 PM75 °FPassing clouds.5 mph74%29.86 "Hg5 mi
10:30 PM75 °FPassing clouds.5 mph74%29.86 "Hg5 mi
10:00 PM75 °FPassing clouds.5 mph74%29.86 "Hg5 mi
9:30 PM75 °FPassing clouds.6 mph78%29.86 "Hg5 mi
9:00 PM77 °FPassing clouds.5 mph69%29.86 "Hg5 mi
8:30 PM75 °FClear.3 mph78%29.86 "Hg5 mi
8:00 PM77 °FPassing clouds.3 mph89%29.83 "Hg5 mi
7:30 PM79 °FPassing clouds.2 mph84%29.83 "Hg5 mi
7:00 PM81 °FClear.3 mph74%29.83 "Hg5 mi
6:30 PM82 °FClear.3 mph70%29.80 "Hg5 mi
6:00 PM84 °FClear.5 mph66%29.80 "Hg6 mi
5:30 PM86 °FPassing clouds.6 mph59%29.80 "HgN/A
5:00 PM88 °FPassing clouds.6 mph52%29.80 "HgN/A
4:30 PM88 °FPassing clouds.7 mph52%29.80 "HgN/A
4:00 PM90 °FPassing clouds.7 mph52%29.80 "HgN/A
3:30 PM90 °FPassing clouds.10 mph52%29.80 "HgN/A
3:00 PM90 °FPassing clouds.9 mph49%29.80 "HgN/A
2:30 PM91 °FPassing clouds.8 mph49%29.80 "HgN/A
2:00 PM91 °FPassing clouds.7 mph49%29.83 "HgN/A
1:30 PM91 °FPassing clouds.10 mph49%29.83 "HgN/A
1:00 PM93 °FPassing clouds.6 mph39%29.83 "HgN/A
12:30 PM91 °FPassing clouds.3 mph44%29.86 "HgN/A
12:00 PM91 °FSunny.5 mph46%29.86 "Hg10 mi
11:30 AM90 °FSunny.3 mph46%29.89 "Hg10 mi
10:30 AM90 °FSunny.3 mph41%29.89 "Hg10 mi
10:00 AM88 °FPassing clouds.6 mph46%29.89 "HgN/A
9:30 AM88 °FPassing clouds.6 mph43%29.92 "HgN/A
9:00 AM86 °FPassing clouds.5 mph46%29.92 "HgN/A
8:30 AM82 °FPassing clouds.3 mph58%29.92 "HgN/A
8:00 AM79 °FPassing clouds.3 mph70%29.92 "HgN/A
7:30 AM77 °FSunny.2 mph74%29.92 "Hg10 mi
7:00 AM73 °FClear.2 mph83%29.92 "Hg6 mi
6:30 AM70 °FPassing clouds.3 mph88%29.92 "Hg5 mi
6:00 AM70 °FPassing clouds.3 mph88%29.89 "Hg5 mi
5:30 AM70 °FClear.2 mph88%29.89 "Hg5 mi
5:00 AM70 °FPassing clouds.3 mph88%29.89 "Hg5 mi
4:30 AM70 °FPassing clouds.3 mph88%29.89 "Hg5 mi
4:00 AM70 °FPassing clouds.3 mph88%29.89 "Hg5 mi
3:30 AM70 °FPassing clouds.2 mph88%29.86 "Hg5 mi
3:00 AM72 °FMild.3 mph83%29.86 "HgN/A
Weather by CustomWeather, © 2014

See weather overviewHow to use our weather pages